This demonstration page uses our WeatherBlox Daily Observations layout. Learn more.

39.92423, -83.80882

Hourly Observations for September 30, 2019

Temp ( °F °C ) Dew Point ( °F °C ) Humidity (%) Winds ( mph kmh ) Pressure ( in mb ) Visibility ( mi km ) Precip ( " mm )
12:56 am 00:56 Clear with Mist and Fog 69 20.6 69 20.6 100 100 SE 6 9 30.15 1021 5 8.04672 0 0
1:56 am 01:56 Cloudy with Mist and Fog 70 21.1 70 21.1 100 100 ESE 5 7 30.12 1020 6 9.656064 0 0
2:56 am 02:56 Clear 68 20 68 20 100 100 SSE 6 9 30.12 1020 7 11.265408 0 0
3:56 am 03:56 Clear 69 20.6 69 20.6 100 100 SSE 5 7 30.09 1019 10 16.09344 0 0
4:56 am 04:56 Clear 69 20.6 68 20 96 96 S 5 7 30.09 1019 10 16.09344 0 0
5:56 am 05:56 Clear 67 19.4 67 19.4 100 100 SW 3 6 30.12 1020 10 16.09344 0 0
6:56 am 06:56 Clear 67 19.4 67 19.4 100 100 SW 5 7 30.12 1020 10 16.09344 0 0
7:56 am 07:56 Sunny 66 18.9 66 18.9 100 100 WSW 3 6 30.15 1021 9 14.484096 0 0
8:56 am 08:56 Sunny 71 21.7 70 21.1 96 96 Calm 30.15 1021 10 16.09344 0 0
9:56 am 09:56 Sunny 76 24.4 71 21.7 85 85 WSW 6 9 30.15 1021 10 16.09344 0 0
10:56 am 10:56 Sunny 82 27.8 71 21.7 69 69 WNW 3 6 30.15 1021 10 16.09344 0 0
11:56 am 11:56 Mostly Cloudy 84 28.9 70 21.1 63 63 WNW 7 11 30.15 1021 10 16.09344 0 0
12:56 pm 12:56 Sunny 87 30.6 70 21.1 57 57 VRB 7 11 30.12 1020 10 16.09344 0 0
1:56 pm 13:56 Cloudy 86 30 69 20.6 57 57 W 9 15 30.09 1019 10 16.09344 0 0
2:56 pm 14:56 Mostly Cloudy 88 31.1 69 20.6 54 54 SW 6 9 30.09 1019 10 16.09344 0 0
3:56 pm 15:56 Mostly Cloudy 90 32.2 68 20 48 48 SW 5 7 30.06 1018 10 16.09344 0 0
4:56 pm 16:56 Sunny 90 32.2 67 19.4 47 47 SW 13 20 30.03 1017 10 16.09344 0 0
5:56 pm 17:56 Sunny 88 31.1 68 20 52 52 SW 3 6 30.03 1017 10 16.09344 0 0
6:56 pm 18:56 Sunny 85 29.4 69 20.6 59 59 Calm 30.03 1017 10 16.09344 0 0
7:56 pm 19:56 Clear 78 25.6 70 21.1 76 76 S 3 6 30.03 1017 10 16.09344 0 0
8:56 pm 20:56 Clear 74 23.3 69 20.6 85 85 Calm 30.03 1017 10 16.09344 0 0
9:56 pm 21:56 Clear 72 22.2 69 20.6 91 91 Calm 30.06 1018 10 16.09344 0 0
10:56 pm 22:56 Clear 72 22.2 68 20 87 87 Calm 30.06 1018 10 16.09344 0 0
11:56 pm 23:56 Clear 72 22.2 67 19.4 84 84 Calm 30.03 1017 10 16.09344 0 0

Powered by AerisWeather